TimeCST,TemperatureF,Dew PointF,Humidity,Sea Level PressureIn,VisibilityMPH,Wind Direction,Wind SpeedMPH,Gust SpeedMPH,PrecipitationIn,Events,Conditions,WindDirDegrees,DateUTC
12:15 AM,15.8,15.8,100,29.87,10.0,ENE,15.0,-,N/A,,Overcast,70,2013-12-03 06:15:00
12:35 AM,14.0,14.0,100,29.87,10.0,ENE,16.1,26.5,N/A,,Overcast,70,2013-12-03 06:35:00
12:55 AM,14.0,14.0,100,29.87,10.0,ENE,17.3,26.5,N/A,,Overcast,70,2013-12-03 06:55:00
1:15 AM,14.0,14.0,100,29.88,10.0,ENE,19.6,25.3,N/A,,Overcast,60,2013-12-03 07:15:00
1:35 AM,14.0,14.0,100,29.90,9.0,ENE,18.4,27.6,N/A,Snow,Light Snow,70,2013-12-03 07:35:00
1:55 AM,14.0,14.0,100,29.90,9.0,ENE,17.3,20.7,N/A,Snow,Light Snow,60,2013-12-03 07:55:00
2:15 AM,12.2,12.2,100,29.90,7.0,ENE,18.4,23.0,N/A,Snow,Light Snow,60,2013-12-03 08:15:00
2:35 AM,12.2,12.2,100,29.90,9.0,NE,17.3,31.1,N/A,Rain,Freezing Rain,50,2013-12-03 08:35:00
2:55 AM,12.2,12.2,100,29.92,10.0,ENE,13.8,26.5,N/A,Rain,Freezing Rain,60,2013-12-03 08:55:00
3:15 AM,12.2,12.2,100,29.93,10.0,NE,23.0,27.6,N/A,,Overcast,50,2013-12-03 09:15:00
3:35 AM,10.4,10.4,100,29.93,8.0,NE,17.3,26.5,N/A,Snow,Light Snow,40,2013-12-03 09:35:00
3:55 AM,10.4,10.4,100,29.94,10.0,NE,16.1,23.0,N/A,,Overcast,40,2013-12-03 09:55:00
4:15 AM,10.4,10.4,100,29.93,8.0,NE,19.6,28.8,N/A,Rain,Freezing Rain,40,2013-12-03 10:15:00
4:35 AM,10.4,10.4,100,29.94,7.0,NE,15.0,23.0,N/A,Rain,Freezing Rain,50,2013-12-03 10:35:00
4:55 AM,8.6,8.6,100,29.95,10.0,NE,19.6,23.0,N/A,Rain,Freezing Rain,50,2013-12-03 10:55:00
5:15 AM,8.6,8.6,100,29.95,10.0,NE,15.0,19.6,N/A,,Overcast,40,2013-12-03 11:15:00
5:35 AM,6.8,6.8,100,29.95,10.0,ENE,13.8,18.4,N/A,,Overcast,60,2013-12-03 11:35:00
5:55 AM,5.0,5.0,100,29.95,8.0,ENE,18.4,24.2,N/A,Rain,Freezing Rain,60,2013-12-03 11:55:00
6:15 AM,5.0,5.0,100,29.96,9.0,ENE,15.0,20.7,N/A,,Mostly Cloudy,60,2013-12-03 12:15:00
6:35 AM,5.0,5.0,100,29.97,8.0,ENE,10.4,-,N/A,Snow,Light Snow,60,2013-12-03 12:35:00
6:55 AM,5.0,5.0,100,29.97,10.0,NE,10.4,-,N/A,,Overcast,50,2013-12-03 12:55:00
7:15 AM,5.0,5.0,100,29.98,10.0,ENE,11.5,18.4,N/A,,Overcast,60,2013-12-03 13:15:00
7:35 AM,3.2,3.2,100,29.98,10.0,ENE,13.8,-,N/A,,Overcast,60,2013-12-03 13:35:00
7:55 AM,3.2,3.2,100,29.98,8.0,NE,18.4,21.9,N/A,Snow,Light Snow,50,2013-12-03 13:55:00
8:15 AM,5.0,5.0,100,29.99,7.0,NE,15.0,27.6,N/A,,Overcast,50,2013-12-03 14:15:00
8:35 AM,5.0,5.0,100,29.99,5.0,NE,17.3,25.3,N/A,,Overcast,50,2013-12-03 14:35:00
8:55 AM,3.2,3.2,100,30.01,5.0,NE,17.3,24.2,N/A,,Overcast,40,2013-12-03 14:55:00
9:15 AM,3.2,3.2,100,30.00,4.0,NE,19.6,26.5,N/A,,Overcast,40,2013-12-03 15:15:00
9:35 AM,3.2,3.2,100,30.02,5.0,NE,16.1,21.9,N/A,,Overcast,40,2013-12-03 15:35:00
9:55 AM,3.2,3.2,100,30.02,5.0,NE,17.3,25.3,N/A,,Mostly Cloudy,40,2013-12-03 15:55:00
10:15 AM,3.2,3.2,100,30.03,10.0,NE,15.0,19.6,N/A,,Overcast,40,2013-12-03 16:15:00
10:35 AM,5.0,5.0,100,30.03,10.0,NE,13.8,20.7,N/A,,Overcast,50,2013-12-03 16:35:00
10:55 AM,5.0,5.0,100,30.04,9.0,NE,12.7,-,N/A,,Overcast,50,2013-12-03 16:55:00
11:15 AM,5.0,5.0,100,30.05,10.0,NNE,10.4,-,N/A,,Overcast,30,2013-12-03 17:15:00
11:35 AM,5.0,5.0,100,30.04,10.0,NE,12.7,-,N/A,,Overcast,40,2013-12-03 17:35:00
11:55 AM,5.0,5.0,100,30.05,10.0,NNE,12.7,-,N/A,Rain,Freezing Rain,20,2013-12-03 17:55:00
12:15 PM,5.0,5.0,100,30.06,10.0,NNE,6.9,-,N/A,Snow,Light Snow,20,2013-12-03 18:15:00
12:35 PM,5.0,5.0,100,30.05,9.0,North,12.7,-,N/A,Rain,Freezing Rain,350,2013-12-03 18:35:00
12:55 PM,6.8,6.8,100,30.05,10.0,North,12.7,-,N/A,Rain,Freezing Rain,10,2013-12-03 18:55:00
1:15 PM,6.8,6.8,100,30.04,10.0,North,11.5,-,N/A,Rain,Freezing Rain,10,2013-12-03 19:15:00
1:35 PM,6.8,6.8,100,30.03,10.0,North,13.8,-,N/A,Rain,Freezing Rain,10,2013-12-03 19:35:00
1:55 PM,6.8,6.8,100,30.02,10.0,North,12.7,-,N/A,Rain,Freezing Rain,10,2013-12-03 19:55:00
2:15 PM,6.8,6.8,100,30.03,10.0,North,13.8,-,N/A,Rain,Freezing Rain,360,2013-12-03 20:15:00
2:35 PM,6.8,6.8,100,30.03,10.0,North,15.0,-,N/A,,Overcast,10,2013-12-03 20:35:00
2:55 PM,6.8,5.0,92,30.02,10.0,North,17.3,-,N/A,,Overcast,360,2013-12-03 20:55:00
3:15 PM,5.0,5.0,100,30.01,10.0,North,9.2,-,N/A,,Mostly Cloudy,360,2013-12-03 21:15:00
3:35 PM,5.0,5.0,100,30.01,10.0,NNE,11.5,-,N/A,,Scattered Clouds,20,2013-12-03 21:35:00
3:55 PM,5.0,5.0,100,30.03,10.0,North,5.8,-,N/A,,Scattered Clouds,360,2013-12-03 21:55:00
4:15 PM,5.0,5.0,100,30.03,10.0,NNE,5.8,-,N/A,,Mostly Cloudy,30,2013-12-03 22:15:00
4:35 PM,5.0,3.2,92,30.03,10.0,North,3.5,-,N/A,,Overcast,360,2013-12-03 22:35:00
4:55 PM,5.0,3.2,92,30.03,10.0,NNE,4.6,-,N/A,,Overcast,20,2013-12-03 22:55:00
5:15 PM,3.2,3.2,100,30.04,10.0,North,12.7,-,N/A,,Overcast,10,2013-12-03 23:15:00
5:35 PM,3.2,3.2,100,30.03,10.0,North,16.1,19.6,N/A,,Overcast,360,2013-12-03 23:35:00
5:55 PM,3.2,1.4,92,30.05,10.0,North,11.5,17.3,N/A,,Mostly Cloudy,360,2013-12-03 23:55:00
6:15 PM,3.2,1.4,92,30.06,10.0,NNW,6.9,-,N/A,,Mostly Cloudy,340,2013-12-04 00:15:00
6:35 PM,3.2,1.4,92,30.06,10.0,North,11.5,-,N/A,,Scattered Clouds,350,2013-12-04 00:35:00
6:55 PM,3.2,1.4,92,30.06,10.0,North,10.4,17.3,N/A,,Clear,350,2013-12-04 00:55:00
7:15 PM,3.2,1.4,92,30.06,10.0,North,10.4,-,N/A,,Clear,350,2013-12-04 01:15:00
7:35 PM,1.4,1.4,100,30.07,10.0,NNW,10.4,-,N/A,,Clear,340,2013-12-04 01:35:00
7:55 PM,1.4,1.4,100,30.07,10.0,North,12.7,17.3,N/A,,Clear,350,2013-12-04 01:55:00
8:15 PM,1.4,1.4,100,30.07,10.0,North,13.8,-,N/A,,Clear,350,2013-12-04 02:15:00
8:35 PM,1.4,1.4,100,30.07,10.0,North,9.2,-,N/A,,Clear,350,2013-12-04 02:35:00
8:55 PM,1.4,1.4,100,30.07,10.0,North,12.7,16.1,N/A,,Scattered Clouds,350,2013-12-04 02:55:00
9:15 PM,1.4,1.4,100,30.08,10.0,North,11.5,-,N/A,,Partly Cloudy,350,2013-12-04 03:15:00
9:35 PM,1.4,1.4,100,30.09,10.0,North,12.7,-,N/A,,Mostly Cloudy,350,2013-12-04 03:35:00
9:55 PM,3.2,1.4,92,30.08,10.0,North,15.0,18.4,N/A,,Overcast,360,2013-12-04 03:55:00
10:15 PM,3.2,1.4,92,30.08,10.0,North,10.4,17.3,N/A,,Overcast,360,2013-12-04 04:15:00
10:35 PM,3.2,3.2,100,30.07,10.0,North,13.8,-,N/A,Rain,Freezing Rain,360,2013-12-04 04:35:00
10:55 PM,3.2,1.4,92,30.07,10.0,NNW,12.7,-,N/A,Snow,Light Snow,340,2013-12-04 04:55:00
11:15 PM,3.2,3.2,100,30.08,10.0,NNW,9.2,-,N/A,,Overcast,340,2013-12-04 05:15:00
11:35 PM,3.2,3.2,100,30.09,10.0,North,9.2,-,N/A,,Overcast,350,2013-12-04 05:35:00
11:55 PM,3.2,3.2,100,30.08,10.0,North,10.4,-,N/A,,Overcast,350,2013-12-04 05:55:00